Wind_Speed
12 13 14 15 15 16 16 16 16 18 19 20 21 23 26 31 34 36 39 42 46 51 56 61 66 71 75 78 80 84 86 88 88 86 81 76 73 72 71 70 68 65 62 59
11 12 14 15 16 17 18 18 18 19 20 22 23 24 28 32 34 37 40 45 50 55 60 65 69 74 77 79 82 85 87 87 86 82 77 75 73 72 70 67 63 60 57 53
13 14 16 16 17 18 18 18 18 19 21 23 25 25 29 32 35 39 43 48 53 58 63 68 72 75 78 80 83 85 86 85 82 78 75 74 72 69 65 60 56 53 50 48
14 15 16 17 17 18 18 18 19 21 22 26 29 29 30 34 38 42 47 51 56 61 66 70 73 76 78 80 83 85 85 82 78 76 75 74 71 66 61 56 52 49 48 46
15 16 17 17 18 19 19 20 21 22 24 26 29 31 33 37 41 45 49 53 58 63 67 71 73 75 78 81 83 83 81 78 76 76 75 73 69 63 57 52 49 47 47 47
15 16 17 18 19 20 21 22 23 24 25 28 31 34 36 40 43 47 51 56 60 65 68 71 73 75 78 81 82 81 78 76 75 75 73 71 65 59 54 50 48 48 47 48
17 17 18 19 20 21 22 24 26 28 29 31 33 35 38 41 45 49 53 57 61 65 68 71 73 75 78 80 80 78 76 74 74 73 71 67 62 57 53 51 51 51 51 51
18 18 19 19 20 22 24 26 29 32 33 33 34 36 39 43 47 50 55 58 62 65 69 71 73 76 78 79 78 76 73 73 73 71 68 64 61 57 55 55 56 56 56 55
20 19 20 20 22 24 26 28 30 32 35 35 36 39 42 45 48 52 55 59 62 66 69 71 73 76 78 78 76 74 72 72 71 70 66 63 60 58 57 58 60 61 61 59
23 22 23 23 24 26 28 30 32 33 37 39 40 40 43 46 49 52 56 60 64 67 69 71 73 76 77 76 74 72 71 71 70 68 65 63 60 59 60 62 64 64 64 64
26 25 25 25 25 27 28 30 31 32 34 38 42 41 43 46 49 53 57 61 64 67 69 71 73 76 76 74 72 69 69 69 68 66 64 62 61 62 64 66 68 68 69 67
28 28 28 27 27 28 28 29 31 33 35 37 41 42 44 47 50 54 58 61 65 67 69 71 73 74 74 71 69 68 68 68 67 65 64 63 63 65 67 68 70 72 71 65
29 31 31 30 30 29 29 30 31 33 35 37 39 41 44 47 50 54 58 62 65 67 68 70 72 73 71 69 67 66 67 66 66 65 64 64 65 66 68 70 73 74 68 60
29 32 34 35 35 35 33 33 33 34 35 36 38 40 44 47 51 55 59 62 65 67 68 69 71 71 70 67 66 65 65 65 65 65 64 65 65 67 70 73 75 73 66 55
27 31 34 37 37 37 36 35 34 34 34 36 38 40 44 47 51 55 59 62 65 66 67 68 69 70 68 66 64 64 64 64 64 64 64 65 66 69 71 74 75 71 63 51
25 29 32 35 37 38 39 38 36 35 35 36 39 41 44 47 51 55 59 62 64 65 65 67 68 68 66 64 62 62 63 63 63 63 64 65 67 69 71 74 75 71 62 50
24 28 32 35 38 41 43 43 40 38 37 39 41 43 45 48 52 56 59 62 63 63 64 65 67 67 65 62 61 61 62 62 62 62 63 65 67 69 71 73 74 71 63 52
24 28 32 36 40 44 46 47 46 43 41 42 42 44 46 49 52 56 59 61 62 62 63 64 66 65 63 61 60 60 60 60 60 61 62 64 66 68 70 72 73 72 65 55
24 28 33 37 41 44 48 50 51 49 44 44 45 46 48 50 53 55 58 60 61 61 62 63 64 64 62 60 58 58 58 58 59 60 61 63 65 66 68 70 71 71 67 59
23 27 32 36 40 45 49 52 53 52 49 48 47 48 49 50 52 55 57 60 61 60 61 62 63 63 61 59 57 56 56 56 57 58 60 61 63 65 67 69 70 70 69 64
23 27 31 35 39 43 49 52 55 53 52 51 49 48 49 49 51 54 57 59 60 60 60 61 62 61 60 57 55 55 55 55 55 57 58 60 61 63 66 68 69 69 68 66
25 29 33 37 41 44 48 51 54 54 53 51 49 48 49 50 51 54 57 59 59 59 59 60 61 60 58 56 54 53 53 53 54 55 56 58 59 61 63 65 66 66 66 65
25 29 32 35 39 42 45 49 53 55 54 52 50 49 49 50 51 54 56 58 59 59 59 59 59 59 58 55 53 52 51 52 52 53 54 55 57 59 60 62 63 64 64 63
27 28 31 35 38 42 45 49 53 55 56 54 52 50 50 50 51 53 56 58 58 58 58 58 58 58 57 54 52 50 50 50 50 51 51 53 54 56 57 59 60 61 61 62
29 31 33 35 39 41 45 48 52 55 57 56 53 51 50 50 51 53 55 57 58 57 57 57 57 57 56 54 51 50 49 49 49 49 49 50 52 54 56 57 58 59 60 60
31 32 35 37 40 43 46 48 51 55 57 56 54 52 50 50 51 52 54 56 57 56 56 56 56 55 55 53 51 49 48 47 48 48 48 49 50 51 53 55 56 57 58 59
Wind_Direction
329 326 323 319 317 317 317 318 319 320 321 320 319 321 319 318 319 321 322 323 324 326 328 329 329 329 329 328 327 326 324 323 321 320 319 318 316 315 313 311 309 307 303 300
330 326 324 323 323 323 325 327 328 325 322 320 322 324 319 318 320 323 325 328 330 331 332 331 331 331 330 329 328 326 325 323 322 322 321 320 319 318 317 315 313 310 307 304
329 328 327 328 328 327 328 328 327 324 323 322 324 325 321 321 324 328 331 333 334 334 333 332 332 332 331 329 328 327 325 325 324 324 323 323 322 321 319 317 315 312 310 307
328 329 330 330 329 327 327 327 326 325 327 327 326 327 326 328 330 333 335 335 335 334 334 334 333 332 331 330 329 327 326 326 326 326 325 325 324 324 322 321 319 317 315 312
333 333 332 331 329 328 327 328 329 329 328 326 326 330 332 333 335 336 336 336 336 336 335 334 333 332 332 331 329 328 328 328 328 328 328 328 328 327 326 325 324 322 318 315
340 337 335 332 331 330 329 330 330 328 328 329 333 334 334 336 336 336 336 337 337 336 335 334 334 334 332 331 330 330 330 330 330 330 330 330 330 329 328 327 326 323 319 315
349 345 340 336 333 332 331 330 330 331 334 337 336 336 336 336 337 337 337 337 337 336 335 336 335 334 333 333 332 332 332 332 332 332 332 332 332 331 330 329 326 323 318 313
357 352 346 340 336 334 333 333 333 333 334 336 336 338 337 337 339 338 337 337 337 337 337 337 336 336 335 334 333 333 334 334 334 334 335 334 334 333 331 329 327 323 318 313
9 2 355 347 341 338 335 334 335 333 332 335 339 340 338 339 339 338 337 338 338 339 339 338 337 337 336 335 335 335 336 336 336 337 337 337 336 335 333 331 328 324 320 315
17 9 2 354 347 342 338 336 335 335 334 336 339 341 339 339 338 336 337 339 340 340 339 339 339 338 337 337 336 337 338 338 339 339 339 339 339 338 336 333 331 328 323 318
24 15 8 0 353 344 340 337 336 336 335 335 336 341 338 338 337 336 339 341 341 341 340 340 340 339 338 338 338 339 340 340 341 342 342 342 342 341 340 338 335 332 328 323
27 22 14 7 360 352 346 341 338 337 336 336 336 338 338 337 337 338 341 342 342 342 342 341 341 340 340 340 340 341 342 343 344 345 345 346 345 345 343 342 340 337 334 331
25 23 19 14 7 1 354 349 343 339 337 336 336 337 337 337 338 341 343 343 343 343 343 342 342 341 341 341 342 342 344 345 347 348 349 349 349 348 347 347 346 344 342 341
24 21 18 15 11 7 3 356 348 342 338 338 337 337 337 339 341 343 344 344 345 344 344 343 343 342 342 343 344 344 346 348 350 351 351 352 352 352 352 352 352 351 351 352
23 21 19 16 13 10 5 359 352 346 341 339 339 339 340 342 343 344 345 346 346 345 345 344 343 344 344 345 345 346 348 351 353 354 354 355 355 356 357 357 358 358 359 1
19 19 18 16 13 10 7 3 358 351 345 343 342 342 343 344 345 346 346 347 346 346 345 345 345 345 346 346 347 348 351 353 355 356 356 358 359 360 1 2 3 4 5 7
13 13 14 14 12 9 8 4 1 356 350 347 345 345 345 346 346 347 347 347 346 346 346 346 346 347 347 348 349 350 353 356 357 358 359 0 2 3 4 6 8 9 10 11
7 8 8 9 9 9 6 4 2 359 353 350 348 347 347 347 348 348 348 347 347 347 347 347 347 348 349 349 351 352 355 357 359 360 1 3 4 6 7 9 11 13 15 15
2 2 3 4 5 5 5 4 1 358 356 352 350 349 348 348 348 348 348 348 348 347 347 348 349 350 350 351 352 354 356 358 360 2 4 5 6 8 10 12 14 16 18 19
356 358 358 -0 1 1 1 2 360 357 356 353 351 349 349 348 348 348 348 349 348 348 348 349 350 351 352 353 353 355 357 359 1 3 6 7 8 9 11 14 16 18 20 22
347 353 355 356 357 358 359 359 358 356 353 352 350 349 348 348 348 348 349 349 349 349 349 350 351 352 353 354 355 356 358 360 2 5 8 9 9 11 13 15 18 19 21 23
339 346 351 352 354 355 355 355 355 354 353 351 349 348 348 348 348 349 350 350 350 350 350 351 352 354 354 355 356 357 359 0 3 5 8 10 11 12 14 16 18 20 22 23
330 339 345 347 349 350 350 352 353 353 352 350 348 348 347 348 348 349 350 350 350 351 351 352 353 354 355 356 357 358 359 1 4 6 8 10 12 13 15 17 19 21 22 24
320 330 337 341 344 347 347 349 350 351 351 350 348 347 347 348 348 349 350 350 351 351 352 352 353 355 356 357 357 358 359 1 4 6 8 9 11 13 15 17 19 20 22 24
313 323 330 336 339 342 344 346 348 349 350 349 347 347 347 347 348 349 350 351 351 352 352 353 354 355 356 357 358 358 359 1 4 6 8 9 11 12 14 16 18 19 21 23
306 317 324 331 335 338 341 343 345 347 348 348 347 346 346 346 347 348 350 351 351 352 352 353 354 355 356 357 358 358 359 1 3 6 8 10 11 12 14 15 16 18 20 22
Height
5892 5891 5888 5886 5883 5880 5878 5875 5871 5868 5864 5861 5858 5854 5849 5843 5838 5833 5826 5818 5810 5800 5790 5778 5766 5753 5739 5724 5709 5694 5679 5663 5646 5630 5615 5600 5585 5570 5556 5541 5528 5517 5508 5500
5892 5889 5887 5883 5880 5877 5873 5870 5867 5864 5861 5857 5854 5851 5845 5839 5833 5827 5820 5811 5801 5790 5779 5768 5755 5740 5726 5711 5696 5680 5663 5646 5629 5613 5597 5582 5568 5553 5539 5525 5512 5500 5491 5483
5890 5888 5884 5881 5877 5873 5870 5868 5865 5862 5859 5854 5851 5848 5841 5835 5828 5821 5812 5802 5791 5781 5770 5757 5743 5729 5714 5699 5682 5665 5647 5630 5613 5597 5583 5569 5555 5539 5525 5513 5500 5488 5479 5471
5888 5885 5881 5878 5874 5871 5868 5865 5862 5859 5855 5850 5846 5843 5836 5829 5821 5813 5804 5794 5784 5773 5760 5747 5733 5718 5703 5686 5668 5650 5632 5615 5599 5583 5568 5554 5539 5526 5512 5500 5489 5478 5468 5460
5885 5882 5879 5876 5872 5869 5865 5862 5859 5855 5851 5848 5842 5837 5832 5823 5814 5806 5797 5787 5776 5764 5751 5737 5723 5708 5691 5673 5655 5637 5619 5602 5586 5570 5554 5540 5525 5511 5499 5488 5478 5468 5458 5449
5883 5880 5876 5873 5870 5866 5862 5859 5856 5852 5849 5844 5837 5831 5825 5817 5809 5800 5790 5779 5768 5756 5743 5729 5713 5697 5680 5662 5644 5625 5608 5591 5575 5559 5543 5527 5514 5501 5489 5479 5469 5459 5449 5439
5881 5878 5874 5871 5867 5864 5860 5856 5852 5847 5843 5839 5832 5826 5820 5811 5803 5793 5783 5772 5761 5749 5735 5720 5704 5687 5670 5652 5634 5616 5598 5582 5565 5549 5532 5517 5503 5490 5479 5469 5459 5449 5439 5428
5879 5876 5873 5868 5865 5861 5857 5852 5848 5842 5837 5834 5828 5821 5815 5806 5796 5786 5776 5766 5754 5741 5726 5711 5695 5678 5660 5642 5624 5606 5590 5573 5556 5539 5523 5508 5494 5481 5469 5457 5446 5434 5423 5412
5878 5875 5871 5866 5862 5858 5853 5849 5844 5839 5832 5828 5822 5816 5807 5798 5790 5781 5771 5760 5747 5732 5717 5702 5685 5668 5650 5632 5615 5598 5581 5564 5548 5531 5515 5500 5486 5473 5460 5447 5433 5419 5405 5392
5877 5874 5869 5864 5860 5855 5850 5845 5840 5834 5827 5820 5816 5810 5802 5793 5784 5775 5765 5752 5738 5724 5709 5693 5676 5659 5641 5623 5606 5589 5572 5556 5539 5523 5507 5492 5478 5464 5450 5435 5420 5404 5387 5371
5877 5873 5868 5863 5858 5853 5848 5843 5837 5831 5825 5817 5810 5808 5798 5789 5779 5769 5758 5744 5731 5716 5701 5685 5668 5651 5633 5615 5598 5583 5567 5550 5534 5517 5501 5486 5471 5456 5440 5423 5406 5388 5369 5350
5877 5872 5867 5862 5856 5851 5845 5840 5834 5828 5822 5813 5806 5803 5792 5784 5774 5763 5750 5737 5724 5709 5693 5677 5661 5644 5626 5609 5593 5577 5561 5545 5529 5512 5496 5480 5464 5449 5432 5414 5394 5373 5351 5330
5876 5871 5866 5861 5857 5850 5843 5837 5830 5824 5817 5810 5803 5799 5787 5778 5767 5756 5744 5731 5717 5702 5686 5670 5654 5637 5621 5604 5588 5572 5557 5541 5524 5507 5491 5475 5459 5443 5425 5406 5384 5360 5337 5316
5875 5870 5865 5860 5853 5846 5840 5834 5826 5819 5813 5806 5799 5792 5782 5772 5761 5749 5737 5724 5710 5695 5680 5664 5648 5632 5615 5599 5583 5568 5553 5536 5520 5503 5487 5472 5456 5438 5419 5398 5375 5351 5329 5310
5875 5869 5863 5857 5851 5844 5838 5831 5824 5816 5809 5802 5795 5787 5777 5766 5755 5744 5731 5718 5703 5689 5674 5659 5644 5628 5611 5595 5580 5565 5549 5533 5517 5501 5485 5469 5452 5434 5415 5394 5372 5348 5326 5308
5874 5869 5863 5858 5851 5844 5837 5829 5821 5813 5805 5798 5790 5781 5771 5761 5749 5737 5725 5712 5698 5684 5669 5655 5639 5624 5608 5592 5577 5562 5547 5531 5515 5499 5484 5467 5450 5433 5414 5393 5371 5349 5329 5312
5872 5867 5862 5856 5849 5842 5834 5826 5818 5810 5801 5793 5784 5776 5765 5755 5744 5732 5719 5706 5693 5679 5665 5651 5636 5620 5604 5589 5575 5560 5545 5529 5514 5499 5483 5467 5450 5433 5414 5395 5374 5353 5334 5318
5869 5864 5858 5852 5846 5838 5834 5823 5814 5806 5797 5789 5779 5770 5760 5750 5738 5727 5715 5702 5689 5675 5661 5647 5631 5616 5601 5586 5571 5557 5542 5528 5514 5500 5484 5468 5452 5435 5418 5399 5380 5360 5341 5325
5866 5861 5855 5848 5841 5835 5828 5818 5809 5801 5794 5785 5775 5765 5754 5744 5733 5722 5710 5698 5685 5672 5658 5643 5628 5613 5599 5584 5570 5556 5542 5528 5515 5501 5486 5470 5455 5439 5422 5405 5386 5368 5350 5334
5863 5858 5853 5845 5838 5831 5826 5816 5805 5798 5789 5780 5770 5760 5750 5740 5730 5720 5707 5694 5681 5668 5654 5640 5626 5611 5596 5582 5569 5556 5543 5530 5517 5503 5488 5473 5458 5442 5426 5410 5392 5375 5359 5344
5860 5855 5850 5842 5835 5828 5821 5811 5803 5794 5787 5775 5765 5756 5746 5736 5726 5715 5703 5690 5677 5664 5651 5637 5623 5609 5595 5581 5568 5556 5543 5530 5517 5503 5489 5476 5462 5447 5431 5415 5399 5383 5368 5354
5854 5850 5844 5837 5830 5825 5816 5808 5801 5793 5782 5771 5761 5752 5742 5732 5721 5710 5699 5686 5674 5661 5648 5635 5621 5607 5593 5580 5567 5555 5543 5531 5518 5505 5492 5479 5466 5452 5437 5423 5408 5394 5379 5366
5850 5846 5841 5836 5831 5823 5814 5806 5798 5788 5778 5768 5757 5748 5737 5727 5717 5706 5695 5683 5671 5658 5645 5632 5619 5606 5593 5580 5567 5556 5544 5532 5519 5507 5495 5483 5471 5458 5445 5431 5418 5404 5391 5378
5845 5842 5837 5832 5826 5819 5811 5803 5794 5785 5774 5764 5754 5744 5733 5723 5713 5703 5691 5680 5668 5655 5643 5630 5617 5604 5592 5579 5567 5556 5544 5533 5521 5510 5498 5487 5475 5463 5451 5439 5426 5414 5401 5388
5838 5835 5831 5827 5821 5815 5808 5799 5790 5781 5770 5760 5750 5740 5729 5719 5709 5699 5688 5677 5665 5652 5640 5628 5615 5603 5591 5579 5567 5556 5545 5534 5523 5512 5502 5490 5479 5467 5456 5444 5433 5420 5408 5396
5832 5830 5825 5821 5816 5809 5802 5794 5786 5777 5767 5756 5746 5736 5726 5715 5706 5695 5685 5674 5662 5650 5638 5626 5614 5602 5590 5579 5567 5557 5546 5536 5526 5515 5505 5494 5483 5472 5460 5448 5437 5426 5415 5403